Time,TemperatureF,DewpointF,PressureIn,WindDirection,WindDirectionDegrees,WindSpeedMPH,WindSpeedGustMPH,Humidity,HourlyPrecipIn,Conditions,Clouds,dailyrainin,SoftwareType,DateUTC
2013-04-14 00:03:00,32.8,29.0,29.93,West,281,7.0,8.0,85,0.00,,,0.00,weatherlink.com 1.10,2013-04-14 07:03:00,
2013-04-14 00:18:00,33.0,29.0,29.93,WNW,298,4.0,9.0,85,0.00,,,0.00,weatherlink.com 1.10,2013-04-14 07:18:00,
2013-04-14 00:33:00,33.1,29.0,29.93,West,274,3.0,7.0,85,0.00,,,0.00,weatherlink.com 1.10,2013-04-14 07:33:00,
2013-04-14 00:48:00,32.5,29.0,29.93,West,278,5.0,9.0,85,0.00,,,0.00,weatherlink.com 1.10,2013-04-14 07:48:00,
2013-04-14 01:03:00,32.5,29.0,29.94,West,281,3.0,7.0,85,0.00,,,0.00,weatherlink.com 1.10,2013-04-14 08:03:00,
2013-04-14 01:18:00,32.4,29.0,29.95,West,273,3.0,6.0,86,0.00,,,0.00,weatherlink.com 1.10,2013-04-14 08:18:00,
2013-04-14 01:33:00,32.4,29.0,29.95,WNW,283,1.0,5.0,86,0.00,,,0.00,weatherlink.com 1.10,2013-04-14 08:33:00,
2013-04-14 01:48:00,32.3,29.0,29.95,West,266,1.0,3.0,87,0.00,,,0.00,weatherlink.com 1.10,2013-04-14 08:48:00,
2013-04-14 02:03:00,32.3,29.0,29.95,West,277,5.0,6.0,87,0.00,,,0.00,weatherlink.com 1.10,2013-04-14 09:03:00,
2013-04-14 02:18:00,32.4,29.0,29.95,West,271,2.0,8.0,86,0.00,,,0.00,weatherlink.com 1.10,2013-04-14 09:18:00,
2013-04-14 02:33:00,32.1,29.0,29.95,WNW,294,5.0,8.0,87,0.00,,,0.00,weatherlink.com 1.10,2013-04-14 09:33:00,
2013-04-14 02:48:00,32.0,29.0,29.95,West,273,3.0,7.0,87,0.00,,,0.00,weatherlink.com 1.10,2013-04-14 09:48:00,
2013-04-14 03:03:00,32.0,29.0,29.96,WNW,288,2.0,6.0,87,0.00,,,0.00,weatherlink.com 1.10,2013-04-14 10:03:00,
2013-04-14 03:18:00,31.8,28.0,29.96,WNW,302,4.0,5.0,87,0.00,,,0.00,weatherlink.com 1.10,2013-04-14 10:18:00,
2013-04-14 03:33:00,31.8,28.0,29.96,WNW,293,3.0,6.0,86,0.00,,,0.00,weatherlink.com 1.10,2013-04-14 10:33:00,
2013-04-14 03:48:00,31.7,28.0,29.96,WNW,295,4.0,5.0,87,0.00,,,0.00,weatherlink.com 1.10,2013-04-14 10:48:00,
2013-04-14 04:03:00,31.7,28.0,29.96,WNW,294,3.0,6.0,86,0.00,,,0.00,weatherlink.com 1.10,2013-04-14 11:03:00,
2013-04-14 04:18:00,31.6,28.0,29.96,WNW,286,2.0,5.0,86,0.00,,,0.00,weatherlink.com 1.10,2013-04-14 11:18:00,
2013-04-14 04:33:00,31.3,28.0,29.96,NW,304,6.0,9.0,88,0.00,,,0.00,weatherlink.com 1.10,2013-04-14 11:33:00,
2013-04-14 04:48:00,30.9,28.0,29.96,WNW,291,4.0,8.0,89,0.00,,,0.00,weatherlink.com 1.10,2013-04-14 11:48:00,
2013-04-14 05:03:00,30.9,28.0,29.96,WNW,293,6.0,8.0,89,0.00,,,0.00,weatherlink.com 1.10,2013-04-14 12:03:00,
2013-04-14 05:18:00,31.0,28.0,29.96,WNW,295,5.0,8.0,88,0.00,,,0.00,weatherlink.com 1.10,2013-04-14 12:18:00,
2013-04-14 05:34:00,31.0,28.0,29.96,WNW,291,7.0,8.0,88,0.00,,,0.00,weatherlink.com 1.10,2013-04-14 12:34:00,
2013-04-14 05:49:00,30.8,28.0,29.96,NW,304,5.0,8.0,89,0.00,,,0.00,weatherlink.com 1.10,2013-04-14 12:49:00,
2013-04-14 06:04:00,30.7,28.0,29.97,NW,308,1.0,6.0,90,0.00,,,0.00,weatherlink.com 1.10,2013-04-14 13:04:00,
2013-04-14 06:19:00,30.6,28.0,29.97,WNW,301,2.0,5.0,90,0.00,,,0.00,weatherlink.com 1.10,2013-04-14 13:19:00,
2013-04-14 06:34:00,30.5,28.0,29.97,NW,323,3.0,6.0,91,0.00,,,0.00,weatherlink.com 1.10,2013-04-14 13:34:00,
2013-04-14 06:49:00,30.5,28.0,29.98,NW,318,4.0,6.0,91,0.00,,,0.00,weatherlink.com 1.10,2013-04-14 13:49:00,
2013-04-14 07:19:00,30.8,29.0,29.98,NW,315,4.0,6.0,91,0.00,,,0.00,weatherlink.com 1.10,2013-04-14 14:19:00,
2013-04-14 07:34:00,31.1,29.0,29.98,WNW,291,5.0,6.0,91,0.00,,,0.00,weatherlink.com 1.10,2013-04-14 14:34:00,
2013-04-14 07:49:00,31.3,29.0,29.98,WNW,297,4.0,6.0,90,0.00,,,0.00,weatherlink.com 1.10,2013-04-14 14:49:00,
2013-04-14 08:04:00,31.6,29.0,29.98,WNW,293,4.0,5.0,90,0.00,,,0.00,weatherlink.com 1.10,2013-04-14 15:04:00,
2013-04-14 08:19:00,31.8,29.0,29.98,WNW,301,3.0,5.0,90,0.00,,,0.00,weatherlink.com 1.10,2013-04-14 15:19:00,
2013-04-14 08:34:00,32.3,30.0,29.99,NW,321,1.0,4.0,89,0.00,,,0.00,weatherlink.com 1.10,2013-04-14 15:34:00,
2013-04-14 08:49:00,32.9,29.0,29.99,SW,222,2.0,3.0,85,0.00,,,0.00,weatherlink.com 1.10,2013-04-14 15:49:00,
2013-04-14 09:04:00,33.4,29.0,29.99,West,262,2.0,4.0,84,0.00,,,0.00,weatherlink.com 1.10,2013-04-14 16:04:00,
2013-04-14 09:19:00,33.6,29.0,29.99,WSW,255,2.0,4.0,82,0.00,,,0.00,weatherlink.com 1.10,2013-04-14 16:19:00,
2013-04-14 09:34:00,33.7,29.0,29.99,WSW,253,2.0,4.0,82,0.00,,,0.00,weatherlink.com 1.10,2013-04-14 16:34:00,
2013-04-14 09:49:00,34.7,30.0,29.99,WNW,295,0.0,3.0,82,0.00,,,0.00,weatherlink.com 1.10,2013-04-14 16:49:00,
2013-04-14 10:04:00,35.0,28.0,29.99,SW,218,3.0,4.0,76,0.00,,,0.00,weatherlink.com 1.10,2013-04-14 17:04:00,
2013-04-14 10:19:00,35.2,28.0,29.99,WSW,243,4.0,6.0,76,0.00,,,0.00,weatherlink.com 1.10,2013-04-14 17:19:00,
2013-04-14 10:34:00,35.8,28.0,29.98,West,271,2.0,5.0,74,0.00,,,0.00,weatherlink.com 1.10,2013-04-14 17:34:00,
2013-04-14 10:49:00,37.4,28.0,29.98,SSE,157,2.0,6.0,70,0.00,,,0.00,weatherlink.com 1.10,2013-04-14 17:49:00,
2013-04-14 11:04:00,37.0,27.0,29.98,SW,232,2.0,5.0,66,0.00,,,0.00,weatherlink.com 1.10,2013-04-14 18:04:00,
2013-04-14 11:19:00,36.5,28.0,29.98,NNW,335,4.0,13.0,71,0.00,,,0.00,weatherlink.com 1.10,2013-04-14 18:19:00,
2013-04-14 11:34:00,36.7,28.0,29.98,NNW,327,6.0,10.0,72,0.00,,,0.00,weatherlink.com 1.10,2013-04-14 18:34:00,
2013-04-14 11:49:00,36.8,28.0,29.97,WNW,303,3.0,7.0,71,0.00,,,0.00,weatherlink.com 1.10,2013-04-14 18:49:00,
2013-04-14 12:04:00,37.1,27.0,29.97,North,352,3.0,6.0,67,0.00,,,0.00,weatherlink.com 1.10,2013-04-14 19:04:00,
2013-04-14 12:19:00,37.4,27.0,29.96,West,273,2.0,5.0,66,0.00,,,0.00,weatherlink.com 1.10,2013-04-14 19:19:00,
2013-04-14 12:34:00,37.5,27.0,29.96,SSW,212,1.0,3.0,66,0.00,,,0.00,weatherlink.com 1.10,2013-04-14 19:34:00,
2013-04-14 12:49:00,39.2,27.0,29.96,WSW,242,3.0,5.0,63,0.00,,,0.00,weatherlink.com 1.10,2013-04-14 19:49:00,
2013-04-14 13:04:00,41.9,32.0,29.95,SSE,158,5.0,11.0,69,0.00,,,0.00,weatherlink.com 1.10,2013-04-14 20:04:00,
2013-04-14 13:19:00,40.5,32.0,29.95,SE,146,3.0,8.0,71,0.00,,,0.00,weatherlink.com 1.10,2013-04-14 20:19:00,
2013-04-14 13:34:00,41.8,29.0,29.95,NE,34,3.0,8.0,61,0.00,,,0.00,weatherlink.com 1.10,2013-04-14 20:34:00,
2013-04-14 13:49:00,38.5,31.0,29.94,East,98,6.0,10.0,75,0.00,,,0.00,weatherlink.com 1.10,2013-04-14 20:49:00,
2013-04-14 14:04:00,37.9,31.0,29.94,East,89,2.0,6.0,76,0.00,,,0.00,weatherlink.com 1.10,2013-04-14 21:04:00,
2013-04-14 14:19:00,37.6,30.0,29.94,NW,324,6.0,8.0,75,0.00,,,0.00,weatherlink.com 1.10,2013-04-14 21:19:00,
2013-04-14 14:35:00,35.7,31.0,29.94,North,4,5.0,10.0,83,0.00,,,0.00,weatherlink.com 1.10,2013-04-14 21:35:00,
2013-04-14 14:49:00,34.9,30.0,29.94,NE,37,6.0,8.0,83,0.00,,,0.00,weatherlink.com 1.10,2013-04-14 21:49:00,
2013-04-14 15:04:00,34.7,31.0,29.93,NNW,340,7.0,8.0,85,0.00,,,0.00,weatherlink.com 1.10,2013-04-14 22:04:00,
2013-04-14 15:19:00,33.9,31.0,29.94,NNW,332,6.0,10.0,89,0.00,,,0.00,weatherlink.com 1.10,2013-04-14 22:19:00,
2013-04-14 15:34:00,33.1,31.0,29.94,NNW,346,6.0,10.0,91,0.00,,,0.00,weatherlink.com 1.10,2013-04-14 22:34:00,
2013-04-14 15:49:00,32.1,30.0,29.94,NNW,330,8.0,12.0,93,0.00,,,0.00,weatherlink.com 1.10,2013-04-14 22:49:00,
2013-04-14 16:05:00,32.0,30.0,29.94,NW,321,6.0,11.0,93,0.01,,,0.01,weatherlink.com 1.10,2013-04-14 23:05:00,
2013-04-14 16:20:00,32.4,31.0,29.93,WNW,296,9.0,9.0,93,0.01,,,0.01,weatherlink.com 1.10,2013-04-14 23:20:00,
2013-04-14 16:35:00,32.7,31.0,29.93,NW,304,7.0,10.0,92,0.02,,,0.02,weatherlink.com 1.10,2013-04-14 23:35:00,
2013-04-14 16:50:00,33.8,31.0,29.92,WSW,250,3.0,6.0,89,0.02,,,0.02,weatherlink.com 1.10,2013-04-14 23:50:00,
2013-04-14 17:05:00,34.2,32.0,29.91,WSW,250,4.0,5.0,90,0.01,,,0.02,weatherlink.com 1.10,2013-04-15 00:05:00,
2013-04-14 17:20:00,33.4,31.0,29.91,WNW,296,4.0,6.0,90,0.02,,,0.03,weatherlink.com 1.10,2013-04-15 00:20:00,
2013-04-14 17:35:00,33.9,31.0,29.91,NW,318,2.0,6.0,89,0.01,,,0.03,weatherlink.com 1.10,2013-04-15 00:35:00,
2013-04-14 17:50:00,34.6,30.0,29.91,NNW,328,3.0,6.0,84,0.01,,,0.03,weatherlink.com 1.10,2013-04-15 00:50:00,
2013-04-14 18:05:00,35.3,30.0,29.91,WNW,287,1.0,4.0,81,0.01,,,0.03,weatherlink.com 1.10,2013-04-15 01:05:00,
2013-04-14 18:20:00,35.6,31.0,29.91,WNW,286,3.0,4.0,82,0.01,,,0.04,weatherlink.com 1.10,2013-04-15 01:20:00,
2013-04-14 18:35:00,37.0,31.0,29.91,NW,304,2.0,3.0,79,0.01,,,0.04,weatherlink.com 1.10,2013-04-15 01:35:00,
2013-04-14 18:50:00,38.0,32.0,29.91,NW,326,1.0,2.0,78,0.01,,,0.04,weatherlink.com 1.10,2013-04-15 01:50:00,
2013-04-14 19:05:00,37.7,31.0,29.91,NNW,332,1.0,1.0,78,0.01,,,0.04,weatherlink.com 1.10,2013-04-15 02:05:00,
2013-04-14 19:20:00,34.8,31.0,29.90,NW,305,3.0,4.0,86,0.00,,,0.04,weatherlink.com 1.10,2013-04-15 02:20:00,
2013-04-14 19:35:00,32.3,30.0,29.91,NNE,19,0.0,2.0,90,0.00,,,0.04,weatherlink.com 1.10,2013-04-15 02:35:00,
2013-04-14 19:50:00,31.0,29.0,29.91,NNW,327,0.0,2.0,91,0.00,,,0.04,weatherlink.com 1.10,2013-04-15 02:50:00,
2013-04-14 20:05:00,30.3,29.0,29.91,WNW,301,3.0,4.0,93,0.00,,,0.04,weatherlink.com 1.10,2013-04-15 03:05:00,
2013-04-14 20:20:00,29.7,28.0,29.92,NNW,344,0.0,2.0,93,0.00,,,0.04,weatherlink.com 1.10,2013-04-15 03:20:00,
2013-04-14 20:35:00,29.5,28.0,29.92,NW,311,2.0,3.0,95,0.00,,,0.04,weatherlink.com 1.10,2013-04-15 03:35:00,
2013-04-14 20:50:00,29.1,28.0,29.92,North,356,0.0,1.0,94,0.00,,,0.04,weatherlink.com 1.10,2013-04-15 03:50:00,
2013-04-14 21:05:00,28.8,27.0,29.92,North,357,0.0,1.0,94,0.00,,,0.04,weatherlink.com 1.10,2013-04-15 04:05:00,
2013-04-14 21:20:00,28.8,28.0,29.92,ESE,111,0.0,0.0,95,0.00,,,0.04,weatherlink.com 1.10,2013-04-15 04:20:00,
2013-04-14 21:35:00,28.7,28.0,29.93,ESE,111,0.0,0.0,95,0.00,,,0.04,weatherlink.com 1.10,2013-04-15 04:35:00,
2013-04-14 21:50:00,28.6,27.0,29.92,ESE,111,0.0,0.0,95,0.00,,,0.04,weatherlink.com 1.10,2013-04-15 04:50:00,
2013-04-14 22:05:00,28.0,27.0,29.92,ESE,111,0.0,0.0,96,0.00,,,0.04,weatherlink.com 1.10,2013-04-15 05:05:00,
2013-04-14 22:20:00,27.3,26.0,29.92,ESE,111,0.0,1.0,96,0.00,,,0.04,weatherlink.com 1.10,2013-04-15 05:20:00,
2013-04-14 22:36:00,27.1,26.0,29.91,ESE,105,0.0,1.0,96,0.00,,,0.04,weatherlink.com 1.10,2013-04-15 05:36:00,
2013-04-14 22:50:00,26.9,26.0,29.91,ESE,115,0.0,1.0,96,0.00,,,0.04,weatherlink.com 1.10,2013-04-15 05:50:00,
2013-04-14 23:05:00,26.7,26.0,29.91,East,95,0.0,1.0,96,0.00,,,0.04,weatherlink.com 1.10,2013-04-15 06:05:00,
2013-04-14 23:20:00,26.0,25.0,29.91,East,94,0.0,1.0,96,0.00,,,0.04,weatherlink.com 1.10,2013-04-15 06:20:00,
2013-04-14 23:35:00,26.4,25.0,29.91,East,85,0.0,1.0,96,0.00,,,0.04,weatherlink.com 1.10,2013-04-15 06:35:00,
2013-04-14 23:50:00,26.4,25.0,29.91,East,97,0.0,1.0,96,0.00,,,0.04,weatherlink.com 1.10,2013-04-15 06:50:00,